Location: Marcé
(47.5801°N, 0.3280°W)
Time: 18:08:43
(UTC+01:00)

Tiros 1 - Pass Details

Date: 30 November 2021
Orbit: 629 x 664 km, 48.4° (Epoch: 26 January)

Event Time Altitude Azimuth Distance (km) Brightness Sun altitude
Rises 19:45:29 0° 196° (SSW) 2,913 10.8 -25.1°
Reaches altitude 10° 19:48:33 10° 175° (S) 2,015 9.7 -25.6°
Enters shadow 19:48:35 10° 175° (S) 2,007 9.7 -25.6°
Maximum altitude 19:51:24 16° 137° (SE) 1,649 - -26.0°
Drops below altitude 10° 19:54:16 10° 99° (E) 2,035 - -26.5°
Sets 19:57:22 0° 78° (ENE) 2,957 - -27.1°
